#�ϑ�����,���ϕ���,���ϕ���,�ő啗��,�ő啗����������,�ő�u�ԕ���,�ő�u�ԕ�����������
#(�N����),(m/s)   ,(16����),(m/s)   ,(16����)        ,(m/s)       ,(16����)            
2012/3/25 0:01,0.3,12,0.4,16,0.5,2
2012/3/25 0:02,0.4,12,0.4,16,1.4,11
2012/3/25 0:03,0.4,11,0.4,16,1,12
2012/3/25 0:04,0.5,11,0.5,11,2.1,10
2012/3/25 0:05,0.7,10,0.7,10,2.5,10
2012/3/25 0:06,0.9,10,0.9,10,2.9,9
2012/3/25 0:07,1,10,1,10,2.4,10
2012/3/25 0:08,1,11,1,10,1.9,11
2012/3/25 0:09,1.1,11,1.1,11,1.8,10
2012/3/25 0:10,1.1,11,1.1,11,1.1,10
2012/3/25 0:11,1.1,11,1.1,11,1,9
2012/3/25 0:12,1.2,11,1.2,11,1.4,11
2012/3/25 0:13,1.2,11,1.2,11,1.6,12
2012/3/25 0:14,1.1,11,1.2,11,0.9,12
2012/3/25 0:15,1,12,1.1,11,1.1,16
2012/3/25 0:16,0.8,12,1,11,1.3,15
2012/3/25 0:17,0.8,13,0.8,11,1.6,14
2012/3/25 0:18,0.8,13,0.8,11,1.4,15
2012/3/25 0:19,0.7,13,0.8,11,0.5,14
2012/3/25 0:20,0.7,14,0.7,11,1,1
2012/3/25 0:21,0.7,14,0.7,11,1,16
2012/3/25 0:22,0.6,15,0.7,11,0.8,1
2012/3/25 0:23,0.6,15,0.6,11,0.5,3
2012/3/25 0:24,0.5,16,0.6,11,0.4,1
2012/3/25 0:25,0.5,16,0.5,12,0.1,1
2012/3/25 0:26,0.4,15,0.5,12,0.4,13
2012/3/25 0:27,0.4,16,0.4,13,1.3,7
2012/3/25 0:28,0.3,16,0.4,13,1.3,7
2012/3/25 0:29,0.3,1,0.3,13,0.5,9
2012/3/25 0:30,0.3,2,0.3,14,0,9
2012/3/25 0:31,0.2,1,0.3,14,0.6,1
2012/3/25 0:32,0.2,12,0.2,15,0.4,15
2012/3/25 0:33,0.3,11,0.3,15,1.5,13
2012/3/25 0:34,0.4,11,0.4,16,2,14
2012/3/25 0:35,0.4,11,0.4,16,1,10
2012/3/25 0:36,0.4,10,0.4,15,1,9
2012/3/25 0:37,0.5,10,0.5,10,1.4,9
2012/3/25 0:38,0.5,10,0.5,10,1.5,9
2012/3/25 0:39,0.5,11,0.5,10,1.1,9
2012/3/25 0:40,0.6,10,0.6,11,1.1,8
2012/3/25 0:41,0.6,10,0.6,11,1.4,9
2012/3/25 0:42,0.7,10,0.7,10,1.8,8
2012/3/25 0:43,0.7,9,0.7,10,1.9,9
2012/3/25 0:44,0.7,9,0.7,10,2,10
2012/3/25 0:45,0.8,9,0.8,9,2.1,8
2012/3/25 0:46,0.9,9,0.9,9,2.2,10
2012/3/25 0:47,0.9,9,0.9,9,2.2,9
2012/3/25 0:48,1,9,1,9,2.6,8
2012/3/25 0:49,1,9,1,9,2.6,9
2012/3/25 0:50,1.1,9,1.1,9,3.2,9
2012/3/25 0:51,1.3,9,1.3,9,3.6,9
2012/3/25 0:52,1.3,9,1.3,9,3,10
2012/3/25 0:53,1.5,9,1.5,9,3.8,11
2012/3/25 0:54,1.5,9,1.5,9,3.3,10
2012/3/25 0:55,1.6,9,1.6,9,3.7,9
2012/3/25 0:56,1.7,9,1.7,9,4.3,9
2012/3/25 0:57,1.7,9,1.7,9,4.4,9
2012/3/25 0:58,1.8,10,1.8,10,3.5,11
2012/3/25 0:59,1.9,10,1.9,10,3.2,10
2012/3/25 1:00,2,10,2,10,3.5,10
2012/3/25 1:01,1.9,10,2,10,3.1,11
2012/3/25 1:02,2,10,2,10,3.2,11
2012/3/25 1:03,2,10,2.1,10,3.9,10
2012/3/25 1:04,2.2,10,2.2,10,5.2,10
2012/3/25 1:05,2.2,10,2.2,10,4.2,10
2012/3/25 1:06,2.2,11,2.2,10,3.5,10
2012/3/25 1:07,2.2,11,2.2,10,3.3,10
2012/3/25 1:08,2.3,10,2.3,11,3.7,10
2012/3/25 1:09,2.3,10,2.3,11,3.9,10
2012/3/25 1:10,2.3,10,2.3,11,3.8,10
2012/3/25 1:11,2.4,10,2.4,10,3.5,9
2012/3/25 1:12,2.4,10,2.4,10,4.1,10
2012/3/25 1:13,2.4,10,2.4,10,3.8,10
2012/3/25 1:14,2.3,10,2.4,10,3.9,10
2012/3/25 1:15,2.2,10,2.3,10,3.1,9
2012/3/25 1:16,2.2,10,2.2,10,2.4,9
2012/3/25 1:17,2,10,2.1,10,2.9,10
2012/3/25 1:18,2,10,2,10,3,10
2012/3/25 1:19,1.8,10,2,10,1.5,9
2012/3/25 1:20,1.6,10,1.8,10,2.1,9
2012/3/25 1:21,1.6,10,1.6,10,2.5,11
2012/3/25 1:22,1.5,10,1.6,10,2.4,9
2012/3/25 1:23,1.3,10,1.4,10,0.9,10
2012/3/25 1:24,1,10,1.3,10,0.3,7
2012/3/25 1:25,0.9,10,1,10,1,10
2012/3/25 1:26,0.8,10,0.9,10,0.6,10
2012/3/25 1:27,0.8,10,0.8,10,1.4,9
2012/3/25 1:28,0.7,10,0.8,10,1.4,8
2012/3/25 1:29,0.7,9,0.7,10,2,8
2012/3/25 1:30,0.7,10,0.7,10,1.3,8
2012/3/25 1:31,0.6,9,0.7,10,1.4,9
2012/3/25 1:32,0.5,9,0.6,10,1.5,8
2012/3/25 1:33,0.6,9,0.6,10,1.6,8
2012/3/25 1:34,0.7,9,0.7,10,1.3,11
2012/3/25 1:35,0.7,9,0.7,10,0.9,10
2012/3/25 1:36,0.6,9,0.7,10,0.4,7
2012/3/25 1:37,0.6,9,0.6,10,0.5,13
2012/3/25 1:38,0.6,10,0.6,10,0.9,13
2012/3/25 1:39,0.6,10,0.6,9,0.8,12
2012/3/25 1:40,0.5,10,0.6,10,1,13
2012/3/25 1:41,0.5,10,0.5,9,0.6,10
2012/3/25 1:42,0.4,11,0.5,9,0.3,1
2012/3/25 1:43,0.3,12,0.4,9,1.1,15
2012/3/25 1:44,0.3,12,0.3,9,1,16
2012/3/25 1:45,0.3,13,0.3,9,1.3,16
2012/3/25 1:46,0.3,14,0.3,9,0.6,16
2012/3/25 1:47,0.3,14,0.4,9,0.6,15
2012/3/25 1:48,0.3,15,0.3,10,0.3,14
2012/3/25 1:49,0.3,15,0.3,10,0.8,14
2012/3/25 1:50,0.3,15,0.3,10,0.4,14
2012/3/25 1:51,0.2,15,0.3,11,0.1,14
2012/3/25 1:52,0.2,15,0.2,11,0,12
2012/3/25 1:53,0.2,14,0.2,14,0.3,13
2012/3/25 1:54,0.1,14,0.2,14,0.4,13
2012/3/25 1:55,0.1,14,0.1,14,0.4,13
2012/3/25 1:56,0.1,14,0.1,14,0.4,13
2012/3/25 1:57,0.1,13,0.1,14,1.1,8
2012/3/25 1:58,0.1,13,0.1,15,0.3,16
2012/3/25 1:59,0.2,13,0.2,15,2.1,13
2012/3/25 2:00,0.4,13,0.4,13,2.1,11
2012/3/25 2:01,0.5,13,0.5,13,2,14
2012/3/25 2:02,0.6,12,0.6,12,2,11
2012/3/25 2:03,0.6,12,0.6,12,1.3,9
2012/3/25 2:04,0.7,12,0.7,12,1.5,11
2012/3/25 2:05,0.7,12,0.7,12,0.6,9
2012/3/25 2:06,0.7,12,0.7,12,0.1,15
2012/3/25 2:07,0.6,12,0.7,12,0.1,12
2012/3/25 2:08,0.7,12,0.7,12,1.1,13
2012/3/25 2:09,0.6,12,0.7,12,2.5,13
2012/3/25 2:10,0.5,12,0.6,12,1.1,10
2012/3/25 2:11,0.4,12,0.5,12,0.3,11
2012/3/25 2:12,0.4,12,0.4,12,1.9,2
2012/3/25 2:13,0.4,13,0.4,12,0.1,2
2012/3/25 2:14,0.3,13,0.3,12,0.1,12
2012/3/25 2:15,0.3,13,0.3,12,1.8,10
2012/3/25 2:16,0.5,12,0.5,12,3.2,11
2012/3/25 2:17,0.7,12,0.7,12,2.9,13
2012/3/25 2:18,0.8,13,0.8,13,2.7,13
2012/3/25 2:19,0.8,13,0.8,13,2.5,13
2012/3/25 2:20,1,13,1,13,5,14
2012/3/25 2:21,1.2,13,1.2,13,4.2,14
2012/3/25 2:22,1.5,13,1.5,13,6.1,12
2012/3/25 2:23,1.9,13,1.9,13,9,15
2012/3/25 2:24,2.1,13,2.1,13,4.7,12
2012/3/25 2:25,2.6,13,2.6,13,9.4,12
2012/3/25 2:26,2.9,13,2.9,13,10.6,12
2012/3/25 2:27,3.1,13,3.1,13,7.7,13
2012/3/25 2:28,3.4,12,3.4,12,9.9,12
2012/3/25 2:29,4.1,12,4.1,12,12.3,12
2012/3/25 2:30,4.3,12,4.3,12,9.5,13
2012/3/25 2:31,4.6,12,4.6,12,7.8,13
2012/3/25 2:32,4.6,13,4.6,12,6.5,14
2012/3/25 2:33,4.6,13,4.6,12,6.5,12
2012/3/25 2:34,4.6,13,4.6,12,7.7,14
2012/3/25 2:35,4.2,13,4.6,12,5,10
2012/3/25 2:36,4,13,4.1,12,7.6,11
2012/3/25 2:37,3.9,12,4,12,4.1,15
2012/3/25 2:38,4,12,4,12,10.6,12
2012/3/25 2:39,3.5,13,3.9,12,7.1,12
2012/3/25 2:40,3.5,12,3.5,12,6.2,13
2012/3/25 2:41,3.3,12,3.5,13,5.2,12
2012/3/25 2:42,3.3,12,3.4,13,5.7,13
2012/3/25 2:43,3.2,12,3.3,13,4.9,11
2012/3/25 2:44,3.1,12,3.1,13,5.2,15
2012/3/25 2:45,3.1,12,3.1,13,6,14
2012/3/25 2:46,3,13,3.1,13,3.6,15
2012/3/25 2:47,3,13,3,12,5.8,14
2012/3/25 2:48,2.8,13,3,12,4.9,12
2012/3/25 2:49,2.6,13,2.8,13,4.8,12
2012/3/25 2:50,2.5,13,2.6,12,6.5,12
2012/3/25 2:51,2.5,12,2.5,12,5,13
2012/3/25 2:52,2.3,12,2.5,12,4.3,10
2012/3/25 2:53,2.4,12,2.4,12,4.9,11
2012/3/25 2:54,2.5,12,2.5,12,5.5,11
2012/3/25 2:55,2.6,12,2.6,12,8.4,13
2012/3/25 2:56,2.8,12,2.8,13,6.3,12
2012/3/25 2:57,2.9,12,2.9,13,5.8,12
2012/3/25 2:58,2.9,12,3,12,7.1,11
2012/3/25 2:59,3.1,12,3.1,12,9.2,11
2012/3/25 3:00,3.4,11,3.4,11,8.9,12
2012/3/25 3:01,3.6,11,3.6,11,10.3,12
2012/3/25 3:02,3.9,12,3.9,12,6.5,13
2012/3/25 3:03,4,12,4,12,7.4,11
2012/3/25 3:04,4.1,12,4.1,12,7.1,11
2012/3/25 3:05,4.2,12,4.2,12,7.7,10
2012/3/25 3:06,4.1,12,4.2,12,5.8,12
2012/3/25 3:07,4,12,4.1,12,5.2,11
2012/3/25 3:08,4.1,12,4.1,12,9.3,11
2012/3/25 3:09,4,12,4.2,12,8.6,13
2012/3/25 3:10,3.8,12,4,12,8.4,11
2012/3/25 3:11,3.9,12,3.9,12,10.5,12
2012/3/25 3:12,3.9,12,4,12,10,12
2012/3/25 3:13,4.1,12,4.1,12,9.7,12
2012/3/25 3:14,4.2,12,4.2,12,8.7,15
2012/3/25 3:15,4.2,12,4.2,12,10.9,12
2012/3/25 3:16,4.5,12,4.5,12,14.8,15
2012/3/25 3:17,5.1,13,5.1,13,12.1,1
2012/3/25 3:18,5,13,5.1,13,9.3,15
2012/3/25 3:19,5,13,5,13,4.9,12
2012/3/25 3:20,5.4,13,5.4,13,10.2,14
2012/3/25 3:21,5.1,13,5.3,13,5.7,13
2012/3/25 3:22,4.9,13,5.1,13,5.1,13
2012/3/25 3:23,4.8,14,4.9,13,6.3,13
2012/3/25 3:24,4.7,13,4.8,13,8.3,12
2012/3/25 3:25,4.8,13,4.8,13,8.1,12
2012/3/25 3:26,4.6,13,4.8,13,9.8,13
2012/3/25 3:27,4.2,13,4.6,13,7.5,12
2012/3/25 3:28,4.1,13,4.2,13,5.7,12
2012/3/25 3:29,4.2,13,4.2,13,5.8,14
2012/3/25 3:30,3.9,13,4.2,13,6.8,12
2012/3/25 3:31,3.7,13,3.8,13,4.3,11
2012/3/25 3:32,3.5,13,3.7,13,3.5,11
2012/3/25 3:33,3.3,13,3.5,14,4.5,15
2012/3/25 3:34,3.2,13,3.3,13,4.3,15
2012/3/25 3:35,3.2,13,3.2,13,8.3,13
2012/3/25 3:36,2.9,13,3.1,13,5.2,15
2012/3/25 3:37,2.6,13,2.8,13,3.3,10
2012/3/25 3:38,2.5,13,2.6,13,3,16
2012/3/25 3:39,2.2,13,2.4,13,2.6,1
2012/3/25 3:40,2,13,2.2,13,2.1,1
2012/3/25 3:41,1.9,13,2,13,3.3,14
2012/3/25 3:42,1.9,14,1.9,13,3.9,13
2012/3/25 3:43,2.2,14,2.2,13,6.2,12
2012/3/25 3:44,2.3,13,2.3,13,5,14
2012/3/25 3:45,2.1,13,2.3,13,7.2,13
2012/3/25 3:46,2.5,13,2.5,13,9,11
2012/3/25 3:47,2.7,13,2.7,13,7.5,12
2012/3/25 3:48,2.9,13,2.9,13,6.4,13
2012/3/25 3:49,3,12,3,12,4.3,12
2012/3/25 3:50,3.1,12,3.1,12,4.3,13
2012/3/25 3:51,3.2,12,3.2,12,4.4,10
2012/3/25 3:52,3.3,12,3.3,12,3.8,10
2012/3/25 3:53,3.1,12,3.2,12,3.3,10
2012/3/25 3:54,3,11,3,12,6.1,12
2012/3/25 3:55,2.9,11,3,12,5.8,12
2012/3/25 3:56,2.6,11,2.9,12,2.7,9
2012/3/25 3:57,2.3,11,2.5,12,3.2,9
2012/3/25 3:58,2.2,11,2.3,12,4.2,11
2012/3/25 3:59,2.2,11,2.2,12,4.4,9
2012/3/25 4:00,2.4,11,2.4,12,4.9,10
2012/3/25 4:01,2.4,11,2.4,12,5.2,11
2012/3/25 4:02,2.4,11,2.4,12,3.2,10
2012/3/25 4:03,2.5,11,2.5,11,3.9,10
2012/3/25 4:04,2.4,11,2.5,11,2.9,12
2012/3/25 4:05,2.2,11,2.3,11,2,13
2012/3/25 4:06,2.1,11,2.2,11,2.7,12
2012/3/25 4:07,2.2,11,2.2,11,2.1,12
2012/3/25 4:08,2.1,11,2.1,11,2.4,13
2012/3/25 4:09,2,11,2.1,11,2.4,14
2012/3/25 4:10,1.7,11,1.9,11,2.5,8
2012/3/25 4:11,1.7,11,1.7,11,4.5,11
2012/3/25 4:12,1.8,11,1.8,11,6.2,9
2012/3/25 4:13,1.9,11,1.9,11,7.5,10
2012/3/25 4:14,2.1,11,2.1,11,9.7,13
2012/3/25 4:15,2.5,11,2.5,11,9.1,12
2012/3/25 4:16,2.6,11,2.6,11,7.4,9
2012/3/25 4:17,3,11,3,11,7.1,10
2012/3/25 4:18,3.2,10,3.2,11,6.7,9
2012/3/25 4:19,3.4,10,3.4,10,6.8,9
2012/3/25 4:20,3.7,10,3.7,10,6.9,10
2012/3/25 4:21,3.8,10,3.8,10,5.6,11
2012/3/25 4:22,3.8,11,3.8,10,7.5,12
2012/3/25 4:23,3.9,11,3.9,11,8.2,10
2012/3/25 4:24,4.2,10,4.2,10,9.3,11
2012/3/25 4:25,4.1,10,4.1,10,6.9,9
2012/3/25 4:26,4.1,10,4.2,10,6.5,10
2012/3/25 4:27,4.2,10,4.2,10,8.7,9
2012/3/25 4:28,4.2,10,4.2,10,6.5,9
2012/3/25 4:29,4.2,10,4.2,10,6.4,10
2012/3/25 4:30,4.2,10,4.2,10,5.4,8
2012/3/25 4:31,4.1,10,4.2,10,4.2,9
2012/3/25 4:32,3.9,10,4.1,10,2.4,13
2012/3/25 4:33,3.5,10,3.9,10,2.4,13
2012/3/25 4:34,3.1,10,3.4,10,3.2,8
2012/3/25 4:35,2.9,10,3.1,10,3.6,10
2012/3/25 4:36,2.7,11,2.8,10,3.6,10
2012/3/25 4:37,2.3,11,2.7,10,2.7,13
2012/3/25 4:38,2.1,11,2.3,10,3.3,13
2012/3/25 4:39,1.9,11,2.1,10,2.4,11
2012/3/25 4:40,1.7,12,1.9,10,1.5,12
2012/3/25 4:41,1.5,11,1.6,10,3.3,9
2012/3/25 4:42,1.5,11,1.5,10,2.1,12
2012/3/25 4:43,1.6,11,1.6,10,2.5,9
2012/3/25 4:44,1.6,11,1.6,10,3.5,10
2012/3/25 4:45,1.8,11,1.8,10,3.9,11
2012/3/25 4:46,1.9,11,1.9,11,3.9,11
2012/3/25 4:47,1.9,11,1.9,11,3.3,9
2012/3/25 4:48,2,11,2,11,4.2,10
2012/3/25 4:49,2.2,10,2.2,10,4.4,10
2012/3/25 4:50,2.3,10,2.3,10,4.2,9
2012/3/25 4:51,2.4,10,2.4,10,4.4,10
2012/3/25 4:52,2.5,10,2.5,10,3.3,10
2012/3/25 4:53,2.6,10,2.6,10,3.5,10
2012/3/25 4:54,2.6,10,2.6,10,4.4,10
2012/3/25 4:55,2.7,10,2.7,10,4.4,10
2012/3/25 4:56,2.6,10,2.7,10,3.8,9
2012/3/25 4:57,2.6,10,2.6,10,3.7,10
2012/3/25 4:58,2.5,10,2.6,10,3.5,10
2012/3/25 4:59,2.4,10,2.5,10,4.1,9
2012/3/25 5:00,2.4,10,2.4,10,3.6,10
2012/3/25 5:01,2.3,10,2.3,10,3.8,10
2012/3/25 5:02,2.3,10,2.3,10,3.5,9
2012/3/25 5:03,2.2,10,2.3,10,2.7,10
2012/3/25 5:04,2.1,10,2.2,10,2,10
2012/3/25 5:05,1.9,10,2.1,10,3.8,9
2012/3/25 5:06,2,10,2,10,3.7,10
2012/3/25 5:07,1.9,10,2,10,2.7,11
2012/3/25 5:08,1.9,10,1.9,10,2.5,11
2012/3/25 5:09,1.8,10,1.9,10,2.9,11
2012/3/25 5:10,1.8,10,1.8,10,3.3,10
2012/3/25 5:11,1.8,10,1.8,10,4.1,10
2012/3/25 5:12,1.8,10,1.9,10,3.8,11
2012/3/25 5:13,1.9,10,1.9,10,4.1,10
2012/3/25 5:14,1.9,10,1.9,10,3,11
2012/3/25 5:15,1.9,11,2,10,3.2,13
2012/3/25 5:16,1.9,11,2,10,3.1,10
2012/3/25 5:17,2,11,2,10,4.2,11
2012/3/25 5:18,2.1,11,2.1,11,3.9,12
2012/3/25 5:19,2.1,12,2.1,11,3.3,13
2012/3/25 5:20,2.1,12,2.2,12,3.1,11
2012/3/25 5:21,2,12,2.1,12,2.5,12
2012/3/25 5:22,1.8,12,2,12,1.3,9
2012/3/25 5:23,1.7,12,1.8,12,2.6,13
2012/3/25 5:24,1.8,12,1.8,12,3.6,12
2012/3/25 5:25,1.9,12,1.9,12,3.8,12
2012/3/25 5:26,1.7,12,1.8,12,1.9,11
2012/3/25 5:27,1.6,13,1.7,12,2,12
2012/3/25 5:28,1.4,12,1.6,12,2.2,12
2012/3/25 5:29,1.3,12,1.4,12,1.8,14
2012/3/25 5:30,1.3,12,1.3,12,1.6,15
2012/3/25 5:31,1.3,13,1.3,12,1.8,15
2012/3/25 5:32,1.3,13,1.3,12,1.3,15
2012/3/25 5:33,1.2,13,1.3,12,1,15
2012/3/25 5:34,1,13,1.2,12,1,13
2012/3/25 5:35,0.9,13,1,12,0.8,9
2012/3/25 5:36,0.8,13,0.9,12,0.6,7
2012/3/25 5:37,0.8,12,0.8,12,1,16
2012/3/25 5:38,0.7,13,0.8,12,1.5,16
2012/3/25 5:39,0.7,13,0.7,12,3,14
2012/3/25 5:40,0.8,13,0.8,12,2.5,14
2012/3/25 5:41,0.8,12,0.8,13,1.8,12
2012/3/25 5:42,0.9,12,0.9,13,3.3,12
2012/3/25 5:43,1,12,1,13,4.2,12
2012/3/25 5:44,1.3,12,1.3,12,5.6,13
2012/3/25 5:45,1.4,12,1.4,12,2.2,13
2012/3/25 5:46,1.5,12,1.5,12,2.5,7
2012/3/25 5:47,1.7,12,1.7,12,2.7,7
2012/3/25 5:48,1.7,11,1.7,12,2.2,6
2012/3/25 5:49,1.7,11,1.7,12,3.2,8
2012/3/25 5:50,1.7,10,1.7,12,3,14
2012/3/25 5:51,1.7,10,1.8,11,3.5,13
2012/3/25 5:52,1.6,10,1.7,11,1.8,12
2012/3/25 5:53,1.6,10,1.6,11,3.2,9
2012/3/25 5:54,1.5,10,1.5,11,3.6,12
2012/3/25 5:55,1.6,10,1.6,11,3.7,15
2012/3/25 5:56,1.5,11,1.6,11,2.2,13
2012/3/25 5:57,1.4,12,1.5,11,1.1,12
2012/3/25 5:58,1.4,12,1.4,11,1.8,11
2012/3/25 5:59,1.3,12,1.4,11,1.5,13
2012/3/25 6:00,1.3,12,1.3,11,3.9,15
2012/3/25 6:01,1.4,12,1.4,10,4.7,13
2012/3/25 6:02,1.5,12,1.5,10,3.5,13
2012/3/25 6:03,1.5,13,1.5,10,4.2,12
2012/3/25 6:04,1.6,13,1.6,10,4.9,13
2012/3/25 6:05,1.7,12,1.7,12,6.2,12
2012/3/25 6:06,1.8,12,1.8,12,4.4,8
2012/3/25 6:07,1.9,12,1.9,12,3.5,9
2012/3/25 6:08,2,11,2,12,4.1,9
2012/3/25 6:09,2.2,11,2.2,11,3.9,9
2012/3/25 6:10,2.3,11,2.3,11,3.2,9
2012/3/25 6:11,2.2,10,2.3,11,3,9
2012/3/25 6:12,2.2,10,2.2,11,2.7,9
2012/3/25 6:13,2.1,10,2.2,11,2.7,9
2012/3/25 6:14,2,10,2.1,11,1.9,11
2012/3/25 6:15,1.8,10,1.9,11,1.8,11
2012/3/25 6:16,1.6,10,1.7,11,1.5,11
2012/3/25 6:17,1.6,10,1.6,11,2.5,9
2012/3/25 6:18,1.5,10,1.6,11,1.8,9
2012/3/25 6:19,1.3,10,1.5,11,1.6,8
2012/3/25 6:20,1.2,10,1.3,11,1,7
2012/3/25 6:21,1,10,1.2,10,0.5,5
2012/3/25 6:22,0.8,10,1,10,0.4,14
2012/3/25 6:23,0.7,10,0.8,10,0.6,10
2012/3/25 6:24,0.8,10,0.8,10,2.1,9
2012/3/25 6:25,0.8,10,0.8,10,2.1,10
2012/3/25 6:26,0.8,10,0.8,10,2.2,11
2012/3/25 6:27,0.7,10,0.8,10,1.4,10
2012/3/25 6:28,0.6,10,0.7,10,0.9,10
2012/3/25 6:29,0.6,10,0.6,10,0.9,6
2012/3/25 6:30,0.6,10,0.6,10,0.3,5
2012/3/25 6:31,0.7,10,0.7,10,1.5,12
2012/3/25 6:32,0.8,10,0.8,10,1.9,16
2012/3/25 6:33,0.9,10,0.9,10,2.7,1
2012/3/25 6:34,1,10,1,10,3.6,16
2012/3/25 6:35,0.9,10,1,10,1.8,11
2012/3/25 6:36,0.9,10,0.9,10,1.4,11
2012/3/25 6:37,0.8,10,0.9,10,1.4,10
2012/3/25 6:38,0.9,11,0.9,10,1.8,9
2012/3/25 6:39,1,11,1,10,2.1,9
2012/3/25 6:40,1.1,11,1.1,11,1.8,8
2012/3/25 6:41,1.1,10,1.1,11,1.4,8
2012/3/25 6:42,1.1,10,1.1,11,1.5,8
2012/3/25 6:43,1,10,1.1,11,1,9
2012/3/25 6:44,0.8,9,1,11,0.5,8
2012/3/25 6:45,0.7,9,0.8,11,0.6,6
2012/3/25 6:46,0.7,8,0.8,11,0.5,6
2012/3/25 6:47,0.6,8,0.7,11,0.3,6
2012/3/25 6:48,0.6,7,0.6,11,0.5,4
2012/3/25 6:49,0.5,7,0.5,11,0.5,3
2012/3/25 6:50,0.4,6,0.4,11,0.5,3
2012/3/25 6:51,0.4,5,0.4,10,0.5,4
2012/3/25 6:52,0.3,5,0.3,10,0.4,3
2012/3/25 6:53,0.2,4,0.3,9,0.5,6
2012/3/25 6:54,0.2,5,0.2,9,0.3,6
2012/3/25 6:55,0.2,4,0.2,9,0.5,3
2012/3/25 6:56,0.2,4,0.2,8,0.5,3
2012/3/25 6:57,0.2,3,0.2,8,0.5,1
2012/3/25 6:58,0.3,3,0.3,7,1.1,1
2012/3/25 6:59,0.4,3,0.4,6,1.6,1
2012/3/25 7:00,0.4,3,0.4,6,1.1,2
2012/3/25 7:01,0.5,2,0.5,2,1.1,1
2012/3/25 7:02,0.5,2,0.5,2,1,1
2012/3/25 7:03,0.6,2,0.6,2,1.4,1
2012/3/25 7:04,0.6,1,0.6,2,0.8,3
2012/3/25 7:05,0.6,1,0.6,2,0.8,16
2012/3/25 7:06,0.6,1,0.6,2,0.5,16
2012/3/25 7:07,0.6,1,0.6,2,1.1,2
2012/3/25 7:08,0.6,1,0.6,2,1,2
2012/3/25 7:09,0.6,2,0.6,2,1,4
2012/3/25 7:10,0.6,2,0.6,2,1.4,4
2012/3/25 7:11,0.6,2,0.6,2,0.9,4
2012/3/25 7:12,0.6,2,0.6,2,1.3,5
2012/3/25 7:13,0.6,3,0.6,2,1,4
2012/3/25 7:14,0.6,3,0.6,1,0.9,5
2012/3/25 7:15,0.6,4,0.6,1,1,5
2012/3/25 7:16,0.7,4,0.7,4,1,5
2012/3/25 7:17,0.6,4,0.7,4,1.3,5
2012/3/25 7:18,0.6,5,0.6,4,1.6,5
2012/3/25 7:19,0.7,5,0.7,4,2.1,5
2012/3/25 7:20,0.7,5,0.7,4,1.6,5
2012/3/25 7:21,0.8,5,0.8,5,2,6
2012/3/25 7:22,0.9,5,0.9,5,1.9,6
2012/3/25 7:23,1,6,1,5,1.9,6
2012/3/25 7:24,1,6,1.1,6,1.6,7
2012/3/25 7:25,1.1,6,1.1,6,1.8,7
2012/3/25 7:26,1.1,6,1.1,6,1.6,8
2012/3/25 7:27,1.2,6,1.2,6,2.4,6
2012/3/25 7:28,1.3,6,1.3,6,1.9,6
2012/3/25 7:29,1.2,6,1.3,6,2,5
2012/3/25 7:30,1.2,6,1.2,6,1.5,3
2012/3/25 7:31,1,6,1.1,6,1.4,10
2012/3/25 7:32,1,7,1,6,1.8,11
2012/3/25 7:33,0.9,7,1,6,1.5,11
2012/3/25 7:34,1,8,1,6,2.2,10
2012/3/25 7:35,0.9,8,1,6,1.6,9
2012/3/25 7:36,1,7,1,6,1.6,5
2012/3/25 7:37,0.9,7,1,6,1.5,5
2012/3/25 7:38,0.9,7,0.9,6,1.3,6
2012/3/25 7:39,0.7,7,0.8,6,0.1,6
2012/3/25 7:40,0.7,8,0.7,6,0.9,12
2012/3/25 7:41,0.8,8,0.8,6,1.1,10
2012/3/25 7:42,0.7,7,0.7,7,0.5,15
2012/3/25 7:43,0.6,6,0.7,8,0.1,1
2012/3/25 7:44,0.6,5,0.6,8,1.8,4
2012/3/25 7:45,0.6,5,0.6,7,1.9,4
2012/3/25 7:46,0.6,5,0.6,7,1.5,4
2012/3/25 7:47,0.6,4,0.6,7,1.3,6
2012/3/25 7:48,0.6,4,0.6,7,1.3,6
2012/3/25 7:49,0.7,4,0.7,8,1.3,5
2012/3/25 7:50,0.7,4,0.7,8,1.3,8
2012/3/25 7:51,0.7,4,0.7,8,1.4,8
2012/3/25 7:52,0.8,5,0.8,5,1.6,10
2012/3/25 7:53,1,6,1,6,2.5,8
2012/3/25 7:54,1,6,1,6,2.1,5
2012/3/25 7:55,0.9,6,1,6,1.3,7
2012/3/25 7:56,0.8,7,0.9,6,0.6,3
2012/3/25 7:57,0.8,7,0.8,6,0.8,2
2012/3/25 7:58,0.8,6,0.8,6,1.3,5
2012/3/25 7:59,0.8,6,0.8,6,1.6,7
2012/3/25 8:00,0.8,7,0.8,6,1.3,7
2012/3/25 8:01,0.7,7,0.8,6,0.8,9
2012/3/25 8:02,0.7,7,0.8,6,0.9,10
2012/3/25 8:03,0.6,8,0.7,6,1,11
2012/3/25 8:04,0.7,8,0.7,6,2.9,14
2012/3/25 8:05,0.8,10,0.8,7,1.6,12
2012/3/25 8:06,0.9,11,0.9,11,3.2,11
2012/3/25 8:07,0.9,11,0.9,11,1.9,11
2012/3/25 8:08,1,12,1,12,3,14
2012/3/25 8:09,1.1,12,1.1,12,2.9,12
2012/3/25 8:10,1,13,1,12,0.3,12
2012/3/25 8:11,1,13,1,12,0.9,13
2012/3/25 8:12,1.1,13,1.1,12,1.9,11
2012/3/25 8:13,1.2,13,1.2,13,2.6,10
2012/3/25 8:14,1.1,13,1.2,13,3.2,10
2012/3/25 8:15,1.1,12,1.1,13,1.8,8
2012/3/25 8:16,1,12,1.1,13,1.6,10
2012/3/25 8:17,1,12,1,13,2.1,9
2012/3/25 8:18,0.9,12,1,13,1.6,9
2012/3/25 8:19,1,12,1,13,3.7,11
2012/3/25 8:20,1.2,11,1.2,13,2.2,12
2012/3/25 8:21,1.4,11,1.4,11,2.9,10
2012/3/25 8:22,1.5,11,1.5,11,3.5,10
2012/3/25 8:23,1.6,11,1.6,11,4.5,10
2012/3/25 8:24,1.7,11,1.7,11,3.9,10
2012/3/25 8:25,1.8,11,1.8,11,3.9,11
2012/3/25 8:26,2,11,2,11,4.8,11
2012/3/25 8:27,2.2,10,2.2,10,4.7,9
2012/3/25 8:28,2.4,10,2.4,11,4.5,9
2012/3/25 8:29,2.3,10,2.4,11,4.5,9
2012/3/25 8:30,2.4,10,2.4,11,4.4,10
2012/3/25 8:31,2.4,10,2.5,10,3.7,10
2012/3/25 8:32,2.4,10,2.4,10,4.8,9
2012/3/25 8:33,2.5,10,2.5,10,4.9,10
2012/3/25 8:34,2.6,10,2.6,10,5.2,10
2012/3/25 8:35,2.7,10,2.7,10,5,10
2012/3/25 8:36,2.7,10,2.8,10,4.9,10
2012/3/25 8:37,2.6,10,2.7,10,4.7,10
2012/3/25 8:38,2.6,10,2.6,10,4.1,10
2012/3/25 8:39,2.6,10,2.7,10,4.4,10
2012/3/25 8:40,2.4,10,2.6,10,3.1,10
2012/3/25 8:41,2.4,10,2.4,10,3,10
2012/3/25 8:42,2.4,10,2.5,10,3.9,9
2012/3/25 8:43,2.3,10,2.4,10,4.3,9
2012/3/25 8:44,2.2,10,2.3,10,4.3,9
2012/3/25 8:45,2,10,2.2,10,3.1,9
2012/3/25 8:46,1.8,10,2,10,3.5,9
2012/3/25 8:47,1.9,10,1.9,10,4.7,10
2012/3/25 8:48,1.9,10,1.9,10,4.5,9
2012/3/25 8:49,2,10,2,10,3.5,10
2012/3/25 8:50,2.1,10,2.1,10,3.2,11
2012/3/25 8:51,2.1,10,2.1,10,3.7,11
2012/3/25 8:52,2,10,2.1,10,3,10
2012/3/25 8:53,1.9,10,2,10,3.1,12
2012/3/25 8:54,2,10,2,10,4.4,11
2012/3/25 8:55,2.1,10,2.1,10,3.5,10
2012/3/25 8:56,2.2,10,2.2,10,3,11
2012/3/25 8:57,2.1,11,2.2,10,3,10
2012/3/25 8:58,2,10,2.1,10,3.5,9
2012/3/25 8:59,2,10,2,10,3.1,9
2012/3/25 9:00,2,10,2,10,4.2,9
2012/3/25 9:01,1.9,10,1.9,10,4.1,9
2012/3/25 9:02,2,10,2,10,3.9,9
2012/3/25 9:03,2.1,10,2.1,10,4.4,9
2012/3/25 9:04,2,10,2.1,10,3.5,9
2012/3/25 9:05,2,10,2.1,10,3.8,9
2012/3/25 9:06,2,9,2,10,3.9,9
2012/3/25 9:07,2,9,2,11,3.2,9
2012/3/25 9:08,2,9,2,10,2.6,8
2012/3/25 9:09,2,9,2,10,3.9,9
2012/3/25 9:10,2,9,2,10,3.7,9
2012/3/25 9:11,2,9,2,10,3.1,7
2012/3/25 9:12,1.9,9,2,10,2.9,8
2012/3/25 9:13,1.9,9,1.9,10,4.7,8
2012/3/25 9:14,1.8,9,1.9,10,2.7,8
2012/3/25 9:15,1.8,9,1.8,10,3.9,9
2012/3/25 9:16,1.8,9,1.8,9,3.6,9
2012/3/25 9:17,1.8,9,1.8,9,3.3,10
2012/3/25 9:18,1.8,9,1.9,9,3.5,8
2012/3/25 9:19,1.9,9,1.9,9,3.8,9
2012/3/25 9:20,1.8,9,1.8,9,3.6,9
2012/3/25 9:21,1.9,10,1.9,9,4.8,9
2012/3/25 9:22,1.9,9,1.9,9,4.7,9
2012/3/25 9:23,2,9,2,9,4.9,9
2012/3/25 9:24,2.1,10,2.1,10,3.5,10
2012/3/25 9:25,2.1,10,2.1,10,2.7,11
2012/3/25 9:26,1.9,10,2.1,10,1.8,8
2012/3/25 9:27,1.9,10,2,10,3.2,8
2012/3/25 9:28,1.9,10,1.9,10,3.3,9
2012/3/25 9:29,1.9,10,1.9,10,3.2,9
2012/3/25 9:30,1.9,10,1.9,10,3.7,8
2012/3/25 9:31,2,9,2,10,5.2,8
2012/3/25 9:32,2,9,2.1,10,4.9,10
2012/3/25 9:33,1.9,9,2,10,2.5,9
2012/3/25 9:34,1.8,9,1.9,10,3.7,8
2012/3/25 9:35,1.9,9,1.9,10,4.1,9
2012/3/25 9:36,1.9,9,1.9,9,4.2,9
2012/3/25 9:37,2.1,9,2.1,9,5.7,9
2012/3/25 9:38,2.1,9,2.2,9,4.2,9
2012/3/25 9:39,2.1,9,2.1,9,3.3,9
2012/3/25 9:40,2.1,9,2.1,9,3.7,10
2012/3/25 9:41,2,9,2.1,9,4.8,8
2012/3/25 9:42,1.9,9,2,9,3.7,8
2012/3/25 9:43,2,9,2,9,4.7,9
2012/3/25 9:44,2,9,2,9,3.3,11
2012/3/25 9:45,2,9,2,9,4.8,7
2012/3/25 9:46,2.1,9,2.1,9,5.4,8
2012/3/25 9:47,2.1,9,2.2,9,4.3,9
2012/3/25 9:48,1.9,9,2,9,3.9,8
2012/3/25 9:49,2.2,9,2.2,9,6.1,9
2012/3/25 9:50,2.2,9,2.3,9,4.9,9
2012/3/25 9:51,2.2,9,2.3,9,3.6,9
2012/3/25 9:52,2.3,9,2.3,9,5.5,8
2012/3/25 9:53,2.5,9,2.5,9,7.8,9
2012/3/25 9:54,2.6,9,2.6,9,5.4,9
2012/3/25 9:55,2.7,9,2.7,9,5.1,9
2012/3/25 9:56,2.8,9,2.8,9,5.5,10
2012/3/25 9:57,3,9,3,9,5.5,10
2012/3/25 9:58,3.2,9,3.2,9,6.8,9
2012/3/25 9:59,3.2,9,3.2,9,4.8,9
2012/3/25 10:00,3.2,9,3.2,9,5,9
2012/3/25 10:01,3.2,9,3.2,9,3.3,8
2012/3/25 10:02,2.9,10,3.2,9,2,11
2012/3/25 10:03,2.6,10,2.9,9,2.5,10
2012/3/25 10:04,2.4,10,2.6,9,2.4,10
2012/3/25 10:05,2.2,10,2.4,9,3.6,8
2012/3/25 10:06,1.9,9,2.1,9,3.6,8
2012/3/25 10:07,1.7,9,2,9,2.9,9
2012/3/25 10:08,1.5,9,1.7,9,4.3,10
2012/3/25 10:09,1.4,9,1.6,9,4.7,9
2012/3/25 10:10,1.4,9,1.4,9,3.5,8
2012/3/25 10:11,1.4,9,1.5,9,2.2,8
2012/3/25 10:12,1.3,9,1.4,10,2.7,8
2012/3/25 10:13,1.4,9,1.4,10,3.2,8
2012/3/25 10:14,1.5,9,1.5,10,3.9,9
2012/3/25 10:15,1.8,9,1.8,10,4.3,8
2012/3/25 10:16,1.9,9,1.9,9,4.2,8
2012/3/25 10:17,2,8,2,9,3.7,8
2012/3/25 10:18,2,8,2,9,3.9,9
2012/3/25 10:19,2,8,2,9,3.3,9
2012/3/25 10:20,2,8,2,9,3.3,8
2012/3/25 10:21,2,8,2,9,3.7,9
2012/3/25 10:22,2.1,8,2.1,8,3.1,9
2012/3/25 10:23,2,8,2.1,8,3.1,10
2012/3/25 10:24,2,8,2,8,2.9,8
2012/3/25 10:25,1.7,9,1.9,8,2.5,8
2012/3/25 10:26,1.5,9,1.7,8,1.5,9
2012/3/25 10:27,1.5,9,1.5,8,2.2,14
2012/3/25 10:28,1.5,9,1.5,8,5.4,11
2012/3/25 10:29,1.7,10,1.7,8,6.3,10
2012/3/25 10:30,1.8,10,1.8,8,4.8,12
2012/3/25 10:31,2,10,2,8,4.9,11
2012/3/25 10:32,2.3,11,2.3,11,7,10
2012/3/25 10:33,2.3,11,2.3,11,3.9,9
2012/3/25 10:34,2.6,11,2.6,11,6.1,10
2012/3/25 10:35,2.9,11,2.9,11,6.4,10
2012/3/25 10:36,3.2,11,3.2,11,6.8,10
2012/3/25 10:37,3.4,10,3.4,10,5.8,11
2012/3/25 10:38,3.6,10,3.6,10,7,10
2012/3/25 10:39,3.7,11,3.7,11,8.6,10
2012/3/25 10:40,3.7,10,3.7,11,6.4,10
2012/3/25 10:41,3.6,10,3.8,10,4.4,12
2012/3/25 10:42,3.4,10,3.6,10,6.4,9
2012/3/25 10:43,3.7,10,3.7,10,7.1,9
2012/3/25 10:44,3.7,10,3.8,10,7.1,9
2012/3/25 10:45,3.5,11,3.7,10,3.9,11
2012/3/25 10:46,3.4,11,3.5,10,7.9,11
2012/3/25 10:47,3.4,11,3.4,10,5.4,10
2012/3/25 10:48,3.4,10,3.5,10,7.8,10
2012/3/25 10:49,3.4,10,3.4,10,8.1,11
2012/3/25 10:50,3.3,10,3.4,10,7.2,9
2012/3/25 10:51,3.4,10,3.4,10,7.5,9
2012/3/25 10:52,3.5,10,3.6,10,6.3,10
2012/3/25 10:53,3.4,10,3.5,10,5.5,10
2012/3/25 10:54,3.3,10,3.4,10,5.2,11
2012/3/25 10:55,3.3,10,3.4,10,4.7,9
2012/3/25 10:56,3.3,10,3.3,10,5.1,8
2012/3/25 10:57,3.4,11,3.4,10,8.5,9
2012/3/25 10:58,3.4,11,3.4,10,11.3,11
2012/3/25 10:59,3.4,11,3.4,10,10.5,10
2012/3/25 11:00,3.6,11,3.6,10,7.9,9
2012/3/25 11:01,3.8,11,3.8,11,8.5,10
2012/3/25 11:02,4,11,4,11,8.1,10
2012/3/25 11:03,4.3,11,4.3,11,8.3,12
2012/3/25 11:04,4.3,11,4.3,11,7.5,11
2012/3/25 11:05,4.5,11,4.5,11,5.6,12
2012/3/25 11:06,4.6,11,4.6,11,7,11
2012/3/25 11:07,4.4,11,4.6,11,5.4,12
2012/3/25 11:08,4.2,11,4.4,11,4.9,7
2012/3/25 11:09,4,12,4.2,11,4.1,14
2012/3/25 11:10,3.8,11,4,11,4.4,9
2012/3/25 11:11,3.6,11,3.7,11,5.2,10